Regional Weather Roundup
Issued by NWS

Home | Current Version | Previous Version | Graphics & Text | Print | Product List | Glossary On
Versions: 1 2 3 4 5 6 7 8 9 10 11 12 13 14 15 16 17 18 19 20 21 22 23 24 25 26 27 28 29 30 31 32 33 34 35 36 37 38 39 40 41 42 43 44 45 46 47 48 49 50
661
ASUS45 KABQ 171801
RWRNM
NEW MEXICO REGIONAL WEATHER ROUNDUP
NATIONAL WEATHER SERVICE ALBUQUERQUE NM
1200 PM MDT TUE OCT 17 2017

NOTE: "FAIR" MEANS FEW OR NO CLOUDS BELOW 12,000 FEET AGL WITH NO
       SIGNIFICANT WEATHER OR OBSTRUCTIONS TO VISION.

      THIS PRODUCT IS RELEASED AS TWO VERSIONS.  ONE VERSION NEAR
      THE TOP OF THE HOUR CONTAINING PRELIMINARY DATA FROM ALBUQUERQUE
      AND OTHER STATIONS.  A FINAL VERSION WITH ADDITIONAL DATA IS
      ISSUED ABOUT 10 MINUTES AFTER THE HOUR.

NMZ501-503-504-510>518-171900-
NORTHWEST PLATEAU/NORTHCENTRAL MOUNTAINS

CITY           SKY/WX    TMP DP  RH WIND       PRES   REMARKS
FARMINGTON     FAIR      60  21  22 VRB3      30.35F
6HR MIN TEMP:  29; 6HR MAX TEMP:  60;

LOS ALAMOS     FAIR      58  24  26 E6        30.42F
SANTA FE       NOT AVBL
TAOS           FAIR      62  17  17 VRB7      30.43F
ANGEL FIRE     FAIR      59  16  18 W10       30.44F

$$
NMZ402-403-502-505>509-171900-
WESTCENTRAL MOUNTAINS/SOUTHWEST MOUNTAINS

CITY           SKY/WX    TMP DP  RH WIND       PRES   REMARKS
GALLUP         FAIR      67  22  18 VRB3      30.39F
6HR MIN TEMP:  25; 6HR MAX TEMP:  67;

GRANTS         FAIR      64  22  19 N7        30.41F
SILVER CITY    FAIR      73  43  34 CALM      30.34F

$$
NMZ407-409-411-412-171900-
SOUTHERN DESERTS

CITY           SKY/WX    TMP DP  RH WIND       PRES   REMARKS
DEMING         FAIR      76  43  30 E6        30.29F
6HR MIN TEMP:  47; 6HR MAX TEMP:  76;

LAS CRUCES     FAIR      73  39  29 SE5       30.31F
HOLLOMAN AFB   FAIR      79  38  22 CALM        N/A
ALAMOGORDO     FAIR      72  37  28 SW5       30.31F
T OR C         FAIR      72  41  32 S9        30.31F
6HR MIN TEMP:  51; 6HR MAX TEMP:  72;


$$
NMZ519>523-171900-
CENTRAL VALLEYS/CENTRAL HIGHLANDS

CITY           SKY/WX    TMP DP  RH WIND       PRES   REMARKS
ALBUQUERQUE    FAIR      64  34  32 SW6       30.36F
6HR MIN TEMP:  46; 6HR MAX TEMP:  64;

DOUBLE EAGLE   MOSUNNY   64  32  29 VRB5      30.38F
MORIARTY ARPT  FAIR      67  35  30 CALM      30.37F
6HR MIN TEMP:  29; 6HR MAX TEMP:  67;

CLINES CORNERS FAIR      65  26  23 NW14G23   30.39F
6HR MIN TEMP:  39; 6HR MAX TEMP:  65;

BELEN          FAIR      65  31  27 CALM      30.35F
6HR MIN TEMP:  39; 6HR MAX TEMP:  65;

SOCORRO        FAIR      67  37  33 CALM      30.33F
6HR MIN TEMP:  43; 6HR MAX TEMP:  67;


$$
NMZ524>526-539-540-171900-
SOUTHCENTRAL MOUNTAINS

CITY           SKY/WX    TMP DP  RH WIND       PRES   REMARKS
RUIDOSO        FAIR      68  37  32 N12G20    30.41F

$$
NMZ527>531-171900-
NORTHEAST HIGHLANDS/NORTHEAST PLAINS

CITY           SKY/WX    TMP DP  RH WIND       PRES   REMARKS
LAS VEGAS      FAIR      68  16  13 MISG      30.34F
6HR MIN TEMP:  44; 6HR MAX TEMP:  69;

RATON          FAIR      72  15  11 SE5       30.27F
6HR MIN TEMP:  30; 6HR MAX TEMP:  73;

CLAYTON        FAIR      74  25  16 N6        30.21F
6HR MIN TEMP:  55; 6HR MAX TEMP:  74;


$$
NMZ532>537-171900-
EASTCENTRAL PLAINS

CITY           SKY/WX    TMP DP  RH WIND       PRES   REMARKS
SANTA ROSA     FAIR      78  31  18 W15       30.22F
TUCUMCARI      FAIR      76  33  21 W10       30.17F
6HR MIN TEMP:  38; 6HR MAX TEMP:  76;

CANNON AFB     FAIR      72  41  33 SW14      30.24F
6HR MIN TEMP:  43; 6HR MAX TEMP:  72;

CLOVIS AIRPORT FAIR      73  43  33 SW15      30.24F

$$
NMZ028-029-538-171900-
SOUTHEAST PLAINS

CITY           SKY/WX    TMP DP  RH WIND       PRES   REMARKS
ROSWELL        FAIR      67  43  41 VRB5      30.25F
6HR MIN TEMP:  41; 6HR MAX TEMP:  67;

ARTESIA        FAIR      70  41  35 VRB5      30.25F
CARLSBAD       FAIR      70  44  39 SE5       30.23F
6HR MIN TEMP:  39; 6HR MAX TEMP:  70;

HOBBS          SUNNY     75  39  27 S9G16     30.27F


$$




USA.gov is the U.S. government's official web portal to all federal, state and local government web resources and services.